Temperature
4 4 4 4 4 4 4 4 4 4 4 4 4 4 4 4 4 4 4 4 4 4 4 4 4 4 4 4 4 4 4 3 3 3 3 3 3 4 4 4 4 4 4
4 3 3 3 3 3 3 3 4 3 3 4 3 3 3 3 3 3 3 3 3 3 3 3 4 4 3 3 3 3 3 3 3 3 3 3 3 3 3 3 3 3 3
3 3 3 3 3 3 3 3 3 3 3 3 3 3 3 3 3 3 2 3 3 3 3 3 3 3 3 3 3 3 3 3 3 2 2 3 3 3 3 3 3 3 3
2 2 2 2 2 2 2 2 2 2 2 2 2 2 2 2 2 2 2 2 2 2 2 2 3 3 3 3 2 2 2 2 2 2 2 2 2 2 2 2 2 2 2
2 2 2 2 2 2 2 2 2 2 1 1 1 1 2 2 2 2 2 2 2 2 2 2 2 2 2 2 2 2 2 2 1 2 2 2 2 2 1 1 1 1 2
2 2 1 1 1 1 1 1 1 1 1 1 1 1 1 1 1 1 1 1 1 1 1 1 1 1 1 1 1 1 1 1 1 1 1 1 1 1 1 1 1 0 0
1 1 1 1 1 1 1 1 1 0 0 0 0 0 0 1 1 1 1 0 1 1 1 1 1 1 1 1 1 1 1 1 1 1 1 1 1 1 1 1 0 -0 0
1 0 0 0 0 0 0 0 -0 -0 -0 -0 -0 -0 -0 -0 -0 0 0 0 -0 0 0 0 0 0 0 0 0 0 1 1 1 1 0 0 0 0 0 0 -0 -0 -0
0 0 0 -0 -0 -0 -0 -0 -0 -1 -1 -1 -1 -1 -1 -1 -1 -1 -0 -0 -0 -0 -0 -0 -0 -0 -0 -0 -0 -0 0 0 0 0 0 -0 -0 -0 -0 -1 -1 -1 -1
0 0 -0 -0 -0 -1 -1 -1 -1 -1 -1 -1 -1 -1 -1 -1 -1 -1 -1 -1 -1 -1 -1 -1 -1 -1 -1 -1 -1 -1 -0 -1 -0 -0 -0 -0 -1 -1 -1 -1 -1 -2 -2
-0 -0 -0 -1 -1 -1 -1 -1 -1 -2 -2 -1 -1 -1 -1 -1 -1 -1 -1 -1 -2 -1 -1 -1 -1 -1 -1 -1 -1 -1 -1 -1 -1 -1 -1 -1 -1 -1 -1 -2 -2 -2 -2
-0 -1 -1 -1 -1 -1 -1 -2 -2 -2 -2 -2 -2 -2 -2 -2 -2 -1 -1 -2 -2 -2 -2 -2 -2 -2 -1 -1 -1 -1 -1 -1 -1 -1 -2 -2 -2 -2 -2 -2 -2 -2 -3
-1 -1 -1 -1 -1 -2 -2 -2 -2 -2 -2 -2 -2 -2 -2 -2 -2 -2 -2 -2 -2 -2 -2 -2 -2 -2 -2 -2 -2 -2 -2 -2 -2 -2 -2 -2 -3 -3 -3 -3 -3 -3 -3
-2 -2 -2 -2 -2 -2 -2 -2 -2 -2 -3 -3 -3 -3 -2 -2 -2 -2 -2 -2 -2 -2 -2 -2 -2 -2 -2 -2 -2 -2 -2 -3 -3 -3 -3 -3 -3 -3 -3 -3 -3 -3 -3
-2 -2 -2 -2 -3 -3 -3 -3 -3 -3 -3 -3 -3 -3 -3 -3 -3 -3 -3 -3 -3 -3 -3 -3 -3 -3 -3 -3 -3 -3 -3 -3 -3 -3 -3 -4 -4 -4 -4 -4 -4 -4 -4
-2 -2 -3 -3 -3 -3 -3 -3 -3 -3 -3 -3 -3 -3 -3 -3 -3 -3 -3 -3 -3 -3 -3 -4 -4 -4 -4 -4 -4 -4 -3 -4 -4 -4 -4 -4 -4 -4 -4 -4 -4 -5 -5
-3 -3 -3 -3 -3 -4 -4 -4 -3 -3 -3 -3 -3 -4 -4 -4 -4 -4 -4 -4 -4 -4 -4 -4 -4 -4 -4 -4 -4 -4 -4 -4 -4 -4 -4 -4 -4 -5 -5 -5 -5 -5 -5
-3 -3 -3 -4 -4 -4 -4 -4 -4 -4 -4 -4 -4 -4 -4 -4 -4 -4 -4 -4 -4 -4 -4 -5 -5 -5 -5 -5 -5 -5 -5 -5 -5 -5 -5 -5 -5 -5 -5 -5 -5 -5 -5
-3 -3 -4 -4 -4 -4 -4 -4 -5 -5 -5 -5 -4 -4 -5 -5 -5 -5 -5 -5 -5 -5 -5 -5 -5 -5 -5 -5 -5 -5 -5 -5 -5 -5 -5 -5 -5 -5 -5 -6 -6 -6 -6
-4 -4 -4 -4 -4 -5 -5 -5 -5 -5 -5 -5 -5 -5 -5 -5 -5 -5 -5 -5 -5 -5 -5 -5 -5 -5 -5 -5 -5 -5 -6 -6 -6 -6 -6 -6 -6 -6 -6 -6 -6 -6 -6
-4 -4 -4 -4 -5 -5 -5 -5 -5 -5 -5 -5 -5 -5 -5 -5 -5 -5 -5 -5 -5 -5 -6 -6 -6 -6 -6 -6 -6 -6 -6 -6 -6 -6 -6 -6 -6 -6 -6 -6 -6 -6 -6
-4 -4 -5 -5 -5 -5 -5 -5 -6 -6 -6 -6 -5 -5 -6 -6 -5 -5 -6 -6 -6 -6 -6 -6 -6 -6 -6 -6 -6 -6 -6 -6 -6 -6 -6 -6 -6 -7 -7 -7 -7 -7 -7
-5 -5 -5 -5 -5 -5 -5 -6 -6 -6 -6 -6 -6 -6 -6 -6 -6 -6 -6 -6 -6 -6 -6 -6 -6 -6 -6 -6 -6 -6 -6 -6 -6 -6 -6 -7 -7 -7 -7 -7 -7 -7 -7
-5 -5 -5 -6 -6 -6 -6 -6 -6 -6 -6 -6 -6 -6 -6 -6 -6 -6 -6 -6 -6 -6 -6 -6 -6 -6 -6 -6 -6 -6 -6 -6 -7 -7 -7 -7 -7 -7 -7 -7 -7 -7 -7
-6 -6 -6 -6 -6 -6 -6 -6 -6 -7 -7 -7 -7 -7 -6 -6 -6 -6 -6 -6 -6 -6 -6 -6 -6 -6 -6 -6 -6 -6 -6 -7 -7 -7 -7 -7 -7 -8 -8 -8 -8 -8 -8
-6 -6 -6 -6 -6 -7 -7 -7 -7 -7 -7 -7 -7 -7 -7 -7 -6 -6 -6 -6 -6 -6 -6 -6 -6 -6 -6 -6 -6 -7 -7 -7 -7 -7 -7 -8 -8 -8 -8 -8 -8 -8 -8
Wind_Speed
2 2 2 2 2 2 2 3 3 3 3 3 3 4 4 4 4 4 4 3 4 4 4 4 5 3 3 3 3 3 3 4 6 4 3 2 3 3 3 4 5 5 6
2 2 2 2 2 2 3 3 3 3 3 3 3 4 4 4 4 5 5 4 5 5 5 5 5 4 4 4 3 4 4 4 5 6 3 2 3 3 3 3 3 4 5
2 2 2 2 3 3 3 3 3 3 3 3 3 4 4 5 5 5 6 5 6 6 5 5 5 5 5 4 5 5 4 4 4 5 5 3 3 2 2 3 3 3 5
2 2 3 3 4 4 4 3 3 3 3 3 3 4 4 5 6 5 6 6 6 6 6 6 6 6 6 6 5 6 5 5 4 4 4 3 3 2 2 3 3 3 4
3 3 4 4 4 3 3 3 3 3 3 3 4 4 4 5 5 5 5 6 6 6 6 6 6 7 7 6 5 5 5 5 4 5 5 4 3 3 3 3 4 4 4
3 4 4 3 4 4 4 3 3 3 3 3 4 4 5 5 7 8 6 5 5 6 6 5 5 7 7 8 9 8 7 6 6 5 5 6 6 5 3 3 3 3 4
4 4 4 4 4 4 4 3 3 3 3 4 4 4 5 6 9 9 8 5 5 5 5 5 5 6 6 6 7 9 8 10 9 7 7 7 6 5 5 5 5 5 5
5 5 5 4 4 4 4 4 4 4 4 4 5 5 5 7 9 9 8 5 5 5 6 6 6 6 6 6 5 6 6 6 7 7 7 7 6 5 6 5 5 3 2
5 6 5 5 5 5 5 5 4 4 4 4 5 5 5 7 9 9 7 4 4 6 5 5 6 6 8 7 5 5 5 5 6 7 7 6 7 6 4 2 2 2 3
6 6 5 5 5 6 5 5 4 4 4 5 5 5 6 6 9 9 7 4 4 5 4 5 7 8 8 7 5 5 6 5 3 3 4 4 3 4 5 4 4 4 3
5 5 5 5 5 5 4 4 4 4 4 5 5 5 6 7 8 9 8 4 4 4 4 4 5 8 8 8 6 5 6 4 2 2 2 2 2 2 2 3 3 4 4
4 4 4 4 4 3 3 4 4 4 4 5 5 5 5 6 7 8 9 7 5 4 5 4 5 8 8 7 5 5 5 3 2 2 2 2 2 2 2 2 2 2 3
4 4 4 4 3 3 3 3 3 4 4 5 5 5 5 4 6 9 9 8 7 4 4 6 7 7 6 4 4 4 3 2 2 2 3 3 3 2 1 1 0 1 1
4 4 3 3 3 3 3 3 4 4 4 5 5 5 5 4 4 4 4 4 5 4 3 4 5 4 3 3 2 2 1 2 3 3 3 2 1 1 2 1 1 0 1
3 3 3 3 3 2 3 3 4 5 5 5 5 4 4 5 6 7 5 3 2 2 1 1 1 1 1 1 1 2 1 2 2 1 1 1 1 1 1 1 1 1 1
3 3 2 2 2 2 2 3 5 5 7 7 7 6 6 7 7 7 7 6 4 2 1 1 2 2 2 2 2 2 2 2 2 2 2 2 2 2 2 1 1 2 2
3 3 3 2 2 2 2 3 4 5 5 6 6 7 6 6 6 6 5 4 3 2 1 2 3 3 3 3 3 3 3 2 2 2 2 2 2 2 2 2 2 2 2
3 3 3 2 3 3 3 3 3 3 4 4 5 6 6 6 5 5 3 2 1 1 1 2 3 3 3 3 3 3 2 2 2 2 2 2 2 2 2 2 3 3 2
3 3 2 2 2 2 2 2 3 3 3 4 4 4 6 5 5 4 3 1 2 2 2 2 3 2 2 3 3 2 2 3 2 2 2 2 3 3 3 3 3 3 2
3 4 3 2 2 2 2 2 2 3 3 3 4 4 4 3 2 3 2 1 2 2 2 3 2 2 2 2 2 2 2 2 2 2 2 2 2 3 3 3 3 2 2
2 3 4 2 2 2 2 2 2 3 3 4 4 4 5 2 3 3 2 2 2 3 3 3 2 2 2 2 2 2 3 3 2 2 2 2 2 2 2 2 2 1 1
2 2 2 2 2 2 2 2 2 3 3 4 4 5 6 3 3 3 3 3 3 3 3 3 2 2 3 3 3 3 3 3 3 3 2 2 1 1 1 1 1 1 1
2 2 2 2 2 3 3 2 2 3 3 3 4 4 4 3 3 3 3 3 3 3 2 2 2 2 2 2 3 3 3 4 3 3 3 2 2 1 1 1 1 1 1
2 2 2 2 2 2 3 3 3 3 3 3 3 4 4 3 3 3 3 3 3 3 3 2 2 2 2 2 2 3 3 4 4 4 4 3 3 2 1 1 1 2 1
2 2 2 2 2 3 3 3 3 3 3 3 3 4 4 3 3 3 3 3 3 3 3 3 2 2 2 2 2 2 3 4 3 4 4 3 3 2 2 2 2 1 1
2 2 2 2 2 3 3 3 3 3 3 3 3 3 3 3 3 3 3 3 3 3 3 2 2 2 2 2 2 3 3 3 3 3 4 3 3 2 2 2 2 1 2
Wind_Direction
285 286 291 288 286 275 261 253 253 256 252 242 243 248 249 248 242 235 236 228 230 240 239 235 243 248 251 249 243 238 239 243 258 273 257 248 234 244 271 267 261 261 264
269 271 268 272 274 271 272 268 262 259 260 253 250 250 256 252 242 236 239 235 230 234 237 237 246 244 247 246 241 241 242 241 247 268 272 255 248 237 243 253 272 268 264
261 264 275 279 274 267 266 269 266 263 271 273 258 257 261 257 246 238 235 232 232 236 235 235 242 236 242 242 242 244 247 251 245 251 265 260 261 248 251 269 267 266 268
265 263 264 265 264 262 261 262 264 261 260 266 268 262 261 260 251 242 237 233 232 236 236 238 241 235 237 236 239 239 242 248 249 248 254 257 256 255 236 252 274 267 274
262 262 262 264 265 262 261 262 260 252 260 264 270 271 266 262 255 247 240 237 234 238 242 243 246 250 251 245 248 241 237 243 247 249 252 255 248 241 243 241 257 278 281
258 262 264 258 259 260 259 259 258 259 262 265 266 273 272 270 273 265 252 235 235 240 245 249 252 252 257 260 263 259 249 243 244 245 252 250 246 241 243 240 249 269 276
259 261 261 254 254 259 261 254 255 255 258 261 264 268 271 275 283 275 264 244 236 242 245 247 255 256 258 254 258 261 256 254 247 242 244 245 244 236 231 238 238 248 263
260 257 254 248 250 257 251 245 249 255 257 259 261 262 269 277 284 278 272 248 242 242 241 240 247 251 251 253 253 258 256 255 254 247 241 241 241 231 222 230 235 253 281
259 253 250 245 248 254 251 248 249 252 258 259 262 260 266 279 284 278 271 245 248 249 245 243 247 248 258 261 253 257 268 275 277 270 266 262 258 248 232 209 213 232 270
262 259 253 247 244 247 247 248 252 255 258 260 265 261 261 270 281 277 267 245 254 259 255 250 257 260 261 258 246 245 255 264 275 292 282 271 252 234 228 220 216 224 250
274 273 262 252 247 243 245 246 246 255 261 262 268 269 264 269 278 272 264 246 247 258 259 256 257 268 267 267 264 250 256 263 251 253 262 266 258 234 234 229 220 218 230
285 276 263 259 255 246 240 246 244 245 253 260 267 275 269 271 279 271 265 266 263 250 254 255 261 271 274 273 271 269 269 269 243 237 245 250 256 259 257 245 244 242 243
286 277 268 265 263 251 242 250 252 246 252 263 267 274 281 274 274 274 270 271 273 266 257 267 274 275 278 275 280 280 275 250 237 237 245 254 254 250 246 256 344 46 330
278 278 276 264 269 272 261 252 251 247 252 262 269 276 284 284 277 274 262 261 270 279 276 269 275 276 285 289 279 284 280 250 240 237 245 254 256 237 237 233 234 239 316
276 274 277 272 266 270 275 268 265 252 250 260 260 260 268 273 278 284 282 264 251 251 258 264 257 259 272 271 282 276 269 266 264 242 226 235 238 233 247 247 232 230 233
278 277 276 278 278 278 283 301 293 288 284 280 278 277 276 278 288 287 286 281 279 271 265 229 241 242 248 252 256 263 265 258 247 232 223 220 225 230 243 255 241 231 240
269 277 277 281 278 280 284 285 300 311 308 303 297 294 291 292 292 293 294 286 268 254 252 244 245 246 248 251 251 253 260 255 247 238 234 223 221 222 223 233 237 246 248
279 280 283 272 274 273 276 281 287 300 314 316 316 310 309 306 304 303 305 316 286 282 261 255 254 253 251 250 248 249 250 243 236 239 232 223 216 217 219 224 226 231 245
290 287 284 282 281 280 283 287 293 297 302 307 318 324 321 317 314 312 315 286 265 273 276 267 260 256 257 252 245 241 238 240 236 229 228 226 219 215 221 224 229 229 237
287 296 305 293 287 286 287 288 294 300 304 304 306 310 322 329 322 317 318 297 273 274 277 274 270 259 252 249 248 243 243 242 231 227 226 228 222 217 217 216 222 230 241
282 291 302 299 284 279 279 280 286 291 296 300 299 306 318 318 301 299 297 289 276 272 273 268 261 258 253 247 241 232 231 236 232 227 227 225 218 226 224 207 206 213 217
270 277 282 278 280 281 285 284 283 287 293 299 306 310 313 314 301 298 296 293 287 276 270 262 259 256 248 240 231 224 224 228 226 217 210 209 212 220 219 192 183 183 184
278 285 290 291 288 300 308 304 298 295 294 297 302 307 308 305 301 297 295 296 296 293 290 269 258 267 266 251 235 224 220 223 221 206 195 199 203 207 204 190 188 195 205
283 282 285 293 297 300 301 303 299 295 295 298 301 300 299 298 297 295 294 294 296 295 296 287 271 261 270 273 257 240 228 221 206 193 187 192 199 203 202 195 201 196 199
265 272 277 280 283 286 291 294 297 298 298 299 298 299 298 298 298 298 298 297 297 297 299 298 291 275 272 269 254 238 226 214 208 187 179 178 185 192 196 195 190 178 190
256 260 264 268 270 273 276 282 288 292 293 296 295 294 295 296 297 300 304 305 308 307 307 308 300 288 278 269 247 233 217 200 193 181 173 164 172 182 188 189 178 178 173
Height
1466 1466 1467 1467 1467 1467 1467 1467 1468 1468 1469 1469 1469 1470 1470 1471 1471 1472 1473 1473 1474 1475 1475 1476 1477 1477 1478 1479 1479 1479 1479 1479 1477 1475 1476 1476 1476 1475 1475 1475 1475 1474 1474
1464 1464 1464 1463 1463 1463 1463 1463 1464 1464 1464 1465 1465 1465 1466 1466 1467 1468 1468 1469 1469 1470 1470 1470 1471 1472 1472 1473 1473 1473 1473 1473 1472 1470 1470 1470 1470 1470 1469 1469 1469 1469 1468
1460 1460 1460 1459 1459 1459 1459 1459 1459 1460 1460 1460 1461 1461 1461 1462 1463 1463 1464 1464 1464 1465 1465 1465 1466 1466 1467 1467 1467 1468 1468 1467 1467 1466 1464 1465 1465 1464 1464 1463 1463 1462 1462
1456 1456 1456 1455 1456 1456 1456 1456 1456 1456 1456 1456 1456 1456 1457 1457 1458 1458 1458 1458 1459 1459 1460 1460 1460 1461 1461 1461 1462 1462 1462 1462 1461 1460 1459 1459 1459 1459 1458 1457 1456 1456 1456
1452 1452 1452 1452 1452 1452 1452 1452 1452 1452 1452 1451 1452 1452 1452 1452 1452 1453 1453 1453 1454 1454 1454 1454 1455 1455 1455 1456 1456 1456 1456 1456 1456 1455 1454 1453 1453 1453 1453 1452 1451 1450 1450
1449 1448 1448 1447 1447 1447 1447 1447 1447 1447 1447 1447 1447 1447 1447 1447 1447 1448 1448 1448 1448 1448 1448 1448 1449 1449 1450 1450 1450 1451 1451 1450 1449 1449 1448 1447 1447 1448 1448 1447 1447 1445 1444
1445 1444 1443 1443 1442 1443 1443 1443 1443 1442 1443 1443 1442 1442 1442 1442 1442 1443 1443 1443 1442 1443 1443 1443 1443 1443 1444 1444 1444 1444 1444 1444 1444 1444 1442 1441 1442 1442 1442 1442 1441 1440 1439
1440 1439 1439 1438 1438 1438 1438 1438 1438 1438 1438 1438 1438 1438 1437 1437 1437 1437 1437 1437 1437 1437 1437 1437 1437 1437 1438 1438 1438 1438 1437 1437 1437 1437 1437 1436 1437 1437 1437 1437 1436 1435 1434
1435 1434 1434 1434 1434 1434 1434 1434 1434 1434 1433 1434 1433 1433 1432 1432 1432 1432 1432 1431 1431 1431 1431 1431 1431 1431 1432 1432 1433 1432 1431 1431 1431 1431 1431 1431 1431 1431 1431 1431 1430 1429 1428
1430 1430 1430 1430 1430 1429 1429 1429 1429 1429 1429 1429 1429 1428 1428 1427 1427 1427 1427 1426 1425 1425 1425 1425 1426 1426 1427 1427 1427 1426 1425 1425 1425 1424 1425 1425 1425 1424 1425 1425 1424 1424 1423
1427 1426 1426 1426 1425 1425 1425 1425 1425 1425 1425 1424 1424 1423 1423 1423 1422 1422 1421 1421 1420 1419 1419 1420 1420 1421 1422 1422 1422 1421 1420 1420 1419 1419 1419 1419 1419 1419 1419 1419 1419 1419 1419
1423 1422 1422 1422 1422 1422 1421 1421 1421 1420 1420 1419 1419 1418 1418 1418 1417 1416 1416 1415 1415 1415 1415 1415 1416 1417 1417 1417 1416 1416 1416 1415 1414 1414 1413 1413 1413 1413 1414 1414 1414 1414 1414
1420 1419 1418 1418 1418 1418 1417 1416 1416 1416 1415 1414 1414 1413 1412 1412 1411 1411 1410 1410 1410 1410 1410 1410 1411 1412 1411 1411 1411 1411 1410 1410 1409 1409 1408 1408 1408 1409 1409 1409 1409 1409 1409
1417 1416 1415 1415 1414 1414 1413 1413 1412 1411 1410 1410 1409 1408 1407 1407 1407 1406 1405 1405 1405 1405 1405 1405 1406 1406 1406 1406 1406 1406 1405 1405 1405 1404 1404 1404 1404 1404 1404 1404 1404 1404 1403
1414 1413 1412 1412 1411 1410 1410 1409 1408 1407 1407 1406 1405 1404 1404 1403 1402 1402 1402 1401 1400 1400 1400 1400 1400 1401 1401 1401 1401 1401 1401 1400 1400 1400 1399 1399 1399 1400 1400 1400 1400 1399 1399
1412 1411 1409 1409 1408 1407 1406 1405 1405 1404 1403 1402 1401 1401 1400 1400 1399 1398 1398 1397 1397 1396 1396 1395 1396 1396 1396 1396 1396 1396 1396 1396 1395 1395 1395 1395 1395 1395 1396 1396 1396 1396 1395
1409 1408 1407 1406 1405 1404 1403 1402 1400 1400 1399 1398 1397 1397 1396 1395 1395 1394 1393 1393 1393 1392 1392 1391 1391 1391 1392 1392 1392 1392 1392 1391 1391 1392 1392 1392 1392 1392 1392 1392 1392 1392 1392
1407 1406 1405 1404 1403 1402 1400 1399 1398 1396 1395 1394 1394 1393 1392 1392 1391 1390 1390 1389 1388 1388 1388 1388 1388 1388 1388 1388 1388 1388 1388 1387 1388 1388 1388 1388 1388 1388 1388 1388 1388 1389 1388
1405 1404 1402 1402 1401 1399 1398 1397 1396 1394 1393 1392 1391 1390 1390 1389 1388 1387 1386 1385 1385 1384 1385 1385 1385 1385 1384 1384 1384 1384 1384 1384 1384 1384 1384 1384 1385 1385 1385 1385 1385 1386 1386
1403 1402 1401 1400 1398 1397 1396 1395 1393 1392 1391 1390 1389 1388 1387 1386 1385 1384 1383 1383 1382 1382 1382 1382 1382 1382 1382 1381 1381 1381 1381 1381 1381 1381 1381 1381 1381 1381 1382 1382 1382 1382 1382
1400 1399 1399 1398 1396 1395 1394 1393 1392 1391 1389 1388 1387 1387 1386 1384 1383 1382 1381 1381 1380 1380 1379 1379 1379 1379 1378 1378 1378 1378 1378 1378 1378 1378 1378 1378 1378 1378 1379 1379 1380 1380 1380
1398 1397 1396 1395 1394 1393 1392 1391 1390 1389 1388 1387 1385 1385 1384 1382 1381 1380 1379 1379 1378 1378 1378 1377 1376 1376 1376 1376 1375 1375 1375 1375 1375 1375 1375 1375 1376 1376 1376 1377 1377 1377 1377
1396 1395 1394 1393 1392 1391 1390 1389 1388 1387 1386 1385 1384 1383 1382 1380 1379 1378 1378 1377 1376 1376 1375 1375 1374 1374 1373 1373 1373 1373 1373 1373 1373 1373 1373 1373 1373 1374 1374 1375 1375 1375 1375
1394 1393 1392 1390 1389 1388 1387 1386 1385 1384 1383 1383 1382 1381 1380 1378 1377 1377 1376 1375 1374 1374 1373 1373 1372 1372 1372 1371 1371 1371 1371 1371 1371 1371 1371 1371 1372 1372 1372 1373 1373 1374 1374
1392 1391 1389 1388 1387 1386 1385 1384 1383 1382 1381 1381 1380 1379 1378 1377 1376 1375 1374 1373 1373 1372 1371 1371 1370 1370 1370 1369 1369 1369 1369 1369 1369 1369 1369 1370 1370 1370 1371 1371 1372 1372 1373
1389 1388 1387 1386 1385 1385 1383 1382 1381 1380 1379 1378 1378 1377 1376 1375 1374 1373 1372 1371 1371 1370 1369 1369 1369 1368 1368 1368 1368 1367 1367 1367 1367 1368 1368 1368 1368 1369 1369 1370 1370 1371 1371